Hourly Data Report for July 05, 2020

All times are specified in Local Standard Time (LST). Add 1 hour to adjust for Daylight Saving Time where and when it is observed.

OTTAWA INTL A
ONTARIO
Current Station Operator: NAVCAN

45°19'00.000" N
75°40'00.000" W
114.90 m
6106001
71628
YOW

Download Data

Hourly Data (July 2020)
Hourly Data Report for July 5, 2020
TIME Temp Definition
°C
Dew Point Definition
°C
Rel Hum Definition
%
Wind Dir Definition
10's deg

Wind Spd Definition
km/h
Visibility Definition
km
Stn Press Definition
kPa
Hmdx Definition


Wind Chill Definition


Weather Definition


00:00 18.2 8.7 53 31 5 24.1 100.04     LegendNANA
01:00 16.7 9.2 61 24 9 24.1 100.03     Mostly Cloudy
02:00 14.0 10.0 77 25 8 24.1 100.02     LegendNANA
03:00 16.2 10.1 67 27 7 24.1 100.02     LegendNANA
04:00 17.5 13.0 75 30 16 24.1 100.09     Mostly Cloudy
05:00 15.6 14.2 91 14 10 24.1 100.01     LegendNANA
06:00 16.6 14.5 88 36 3 24.1 100.05     LegendNANA
07:00 19.8 13.3 66 18 4 24.1 100.05     Clear
08:00 22.4 11.8 50 24 6 24.1 100.07 25   LegendNANA
09:00 24.8 10.2 39 22 12 24.1 100.00 26   LegendNANA
10:00 26.2 12.8 43 25 15 24.1 99.99 29   Mainly Clear
11:00 26.7 14.8 47 30 18 24.1 100.00 31   LegendNANA
12:00 28.4 15.7 45 30 26 24.1 99.98 33   LegendNANA
13:00 28.4 15.6 45 30 23 24.1 99.95 33   Mostly Cloudy
14:00 28.1 15.1 44 29 27 24.1 99.94 32   LegendNANA
15:00 29.9 14.6 39 28 23 24.1 99.92 34   LegendNANA
16:00 28.2 15.2 45 35 21 24.1 99.92 32   Mostly Cloudy
17:00 28.9 14.9 42 33 20 24.1 99.92 33   LegendNANA
18:00 27.2 14.1 44 1 23 24.1 99.98 31   LegendNANA
19:00 26.1 13.8 46 36 17 24.1 100.02 29   Mainly Clear
20:00 24.3 13.5 50 2 14 24.1 100.08 27   LegendNANA
21:00 22.9 13.6 56 3 14 24.1 100.16 26   LegendNANA
22:00 20.0 13.6 66 7 10 24.1 100.18     Mainly Clear
23:00 18.7 13.7 72 8 10 24.1 100.23     LegendNANA

Notes on Data Quality.

Legend

  • E = Estimated
  • M = Missing
  • NA = Not Available*
  • [empty] = Indicates an unobserved value
Date modified: